This is the latest recevied weather packets stored in our database for station/object KG4AGD. If no packets are shown the sender has not sent any weather packets the latest 1 day(s).
| Time | Temp. | Humidity | Pressure | Rain* | Wind** | Luminosity | Snow |
|---|---|---|---|---|---|---|---|
| 1778030247 | 21.11° C | 68% | 1016.9 hPa | 0 mm | 6.26 m/s, 165° | - | - |
| 1778029944 | 21.11° C | 68% | 1016.9 hPa | 0 mm | 3.58 m/s, 172° | - | - |
| 1778029642 | 21.11° C | 68% | 1016.5 hPa | 0 mm | 2.24 m/s, 146° | - | - |
| 1778029340 | 21.11° C | 67% | 1016.5 hPa | 0 mm | 3.13 m/s, 187° | - | - |
| 1778029037 | 21.11° C | 67% | 1016.5 hPa | 0 mm | 4.02 m/s, 143° | - | - |
| 1778028735 | 21.67° C | 66% | 1016.5 hPa | 0 mm | 2.68 m/s, 159° | - | - |
| 1778028432 | 21.67° C | 65% | 1016.2 hPa | 0 mm | 4.92 m/s, 172° | - | - |
| 1778028130 | 21.67° C | 65% | 1016.2 hPa | 0 mm | 2.68 m/s, 182° | - | - |
| 1778027827 | 21.67° C | 65% | 1016.2 hPa | 0 mm | 1.34 m/s, 175° | - | - |
| 1778027525 | 22.22° C | 64% | 1016.2 hPa | 0 mm | 3.13 m/s, 170° | - | - |
| 1778027223 | 22.22° C | 63% | 1016.2 hPa | 0 mm | 3.58 m/s, 145° | - | - |
| 1778026921 | 22.22° C | 63% | 1015.9 hPa | 0 mm | 4.47 m/s, 144° | - | - |
| 1778026618 | 22.22° C | 63% | 1015.9 hPa | 0 mm | 3.58 m/s, 171° | - | - |
| 1778026316 | 22.78° C | 62% | 1015.9 hPa | 0 mm | 4.47 m/s, 165° | - | - |
| 1778026014 | 22.78° C | 61% | 1015.9 hPa | 0 mm | 2.24 m/s, 198° | - | - |
| 1778025711 | 22.78° C | 61% | 1015.9 hPa | 0 mm | 4.92 m/s, 172° | - | - |
| 1778025408 | 22.78° C | 60% | 1015.5 hPa | 0 mm | 2.24 m/s, 179° | - | - |
| 1778025106 | 23.33° C | 59% | 1015.5 hPa | 0 mm | 4.02 m/s, 179° | - | - |
| 1778024804 | 23.33° C | 58% | 1015.5 hPa | 0 mm | 1.79 m/s, 183° | - | - |
| 1778024501 | 23.33° C | 57% | 1015.9 hPa | 0 mm | 3.13 m/s, 183° | - | - |
| 1778024199 | 23.89° C | 56% | 1015.5 hPa | 0 mm | 5.81 m/s, 154° | - | - |
| 1778023897 | 23.89° C | 56% | 1015.5 hPa | 0 mm | 6.26 m/s, 183° | - | - |
| 1778023595 | 23.89° C | 55% | 1015.5 hPa | 0 mm | 5.36 m/s, 155° | - | - |
| 1778023293 | 24.44° C | 55% | 1015.5 hPa | 0 mm | 4.47 m/s, 153° | - | - |
| 1778022991 | 24.44° C | 55% | 1015.5 hPa | 0 mm | 3.13 m/s, 206° | - | - |
* Rain since midnight (hover to see other rain measurements)
** Current wind speed in m/s (hover to see current wind gust speed)